Location: Belfast
(54.5830°N, 5.9330°W)
Time: 14:08:55
(UTC+01:00)

ISS - Pass Details

Date: 21 May 2017
Orbit: 402 x 408 km, 51.6° (Epoch: 26 May)

Event Time Altitude Azimuth Distance (km) Brightness Sun altitude
Exits shadow 01:57:34 33° 208° (SSW) 713 -3.1 -14.8°
Maximum altitude 01:58:28 41° 167° (SSE) 601 -3.4 -14.8°
Drops below altitude 10° 02:01:35 10° 95° (E) 1,467 -0.9 -14.7°
Sets 02:03:44 0° 89° (E) 2,327 0.2 -14.6°
